| time (UTC) | temp C | wind direction | speed KPH | gust KPH | rain 1hr cm | rain 24hr cm | rain mn cm | humidity % | barometer mb |
| 20260507070512 | 12 | 107 | 0.0 | 1.6 | 0.00 | 0.00 | 0.00 | 79 | 1013.3 |
| 20260507070023 | 12 | 120 | 0.0 | 3.2 | 0.00 | 0.00 | 0.00 | 80 | 1013.1 |
| 20260507065511 | 12 | 120 | 0.0 | 3.2 | 0.00 | 0.00 | 0.00 | 80 | 1013.3 |
| 20260507065009 | 12 | 120 | 0.0 | 1.6 | 0.00 | 0.00 | 0.00 | 81 | 1013.2 |
| 20260507064527 | 12 | 120 | 0.0 | 1.6 | 0.00 | 0.00 | 0.00 | 81 | 1013.3 |
| 20260507064008 | 12 | 120 | 0.0 | 1.6 | 0.00 | 0.00 | 0.00 | 81 | 1013.2 |
| 20260507063511 | 12 | 120 | 0.0 | 1.6 | 0.00 | 0.00 | 0.00 | 82 | 1013.3 |
| 20260507063030 | 12 | 120 | 0.0 | 1.6 | 0.00 | 0.00 | 0.00 | 82 | 1013.3 |
| 20260507062510 | 12 | 120 | 0.0 | 1.6 | 0.00 | 0.00 | 0.00 | 83 | 1013.2 |
| 20260507062006 | 12 | 120 | 0.0 | 1.6 | 0.00 | 0.00 | 0.00 | 84 | 1013.1 |
| 20260507061528 | 12 | 120 | 0.0 | 1.6 | 0.00 | 0.00 | 0.00 | 82 | 1013.1 |
| 20260507061008 | 12 | 120 | 0.0 | 1.6 | 0.00 | 0.00 | 0.00 | 84 | 1013.0 |
| 20260507060506 | 12 | 120 | 0.0 | 1.6 | 0.00 | 0.00 | 0.00 | 81 | 1013.0 |
| 20260507060029 | 12 | 120 | 0.0 | 1.6 | 0.00 | 0.00 | 0.00 | 81 | 1012.9 |
| 20260507055508 | 12 | 120 | 0.0 | 1.6 | 0.00 | 0.00 | 0.00 | 82 | 1012.9 |
| 20260507055019 | 12 | 120 | 0.0 | 1.6 | 0.00 | 0.00 | 0.00 | 82 | 1012.8 |
| 20260507054526 | 12 | 120 | 0.0 | 1.6 | 0.00 | 0.00 | 0.00 | 81 | 1012.8 |
| 20260507054007 | 12 | 120 | 0.0 | 1.6 | 0.00 | 0.00 | 0.00 | 81 | 1012.8 |
| 20260507053511 | 12 | 120 | 0.0 | 1.6 | 0.00 | 0.00 | 0.00 | 80 | 1012.7 |
| 20260507053028 | 12 | 108 | 0.0 | 1.6 | 0.00 | 0.00 | 0.00 | 82 | 1012.7 |
| 20260507052507 | 11 | 108 | 0.0 | 1.6 | 0.00 | 0.00 | 0.00 | 82 | 1012.6 |
| 20260507052011 | 11 | 108 | 0.0 | 1.6 | 0.00 | 0.00 | 0.00 | 84 | 1012.5 |
| 20260507051516 | 11 | 108 | 0.0 | 1.6 | 0.00 | 0.00 | 0.00 | 84 | 1012.5 |
| 20260507051009 | 11 | 108 | 0.0 | 1.6 | 0.00 | 0.00 | 0.00 | 84 | 1012.5 |
| 20260507050511 | 11 | 108 | 0.0 | 1.6 | 0.00 | 0.00 | 0.00 | 84 | 1012.5 |
| 20260507050030 | 11 | 108 | 0.0 | 1.6 | 0.00 | 0.00 | 0.00 | 84 | 1012.5 |
| 20260507045506 | 11 | 108 | 0.0 | 1.6 | 0.00 | 0.00 | 0.00 | 84 | 1012.4 |
| 20260507045008 | 11 | 108 | 0.0 | 1.6 | 0.00 | 0.00 | 0.00 | 85 | 1012.4 |
| 20260507044539 | 11 | 108 | 0.0 | 1.6 | 0.00 | 0.00 | 0.00 | 86 | 1012.2 |
| 20260507044014 | 11 | 108 | 0.0 | 1.6 | 0.00 | 0.00 | 0.00 | 85 | 1012.3 |
| 20260507043509 | 11 | 108 | 0.0 | 1.6 | 0.00 | 0.00 | 0.00 | 85 | 1012.2 |
| 20260507043029 | 11 | 108 | 0.0 | 1.6 | 0.00 | 0.00 | 0.00 | 84 | 1012.1 |
| 20260507042512 | 11 | 108 | 0.0 | 1.6 | 0.00 | 0.00 | 0.00 | 85 | 1012.0 |
| 20260507042010 | 11 | 107 | 0.0 | 1.6 | 0.00 | 0.00 | 0.00 | 85 | 1012.0 |
| 20260507041526 | 11 | 108 | 0.0 | 1.6 | 0.00 | 0.00 | 0.00 | 84 | 1012.0 |
| 20260507041008 | 11 | 108 | 0.0 | 1.6 | 0.00 | 0.00 | 0.00 | 83 | 1011.9 |
| 20260507040507 | 11 | 108 | 0.0 | 1.6 | 0.00 | 0.00 | 0.00 | 83 | 1012.0 |
| 20260507040019 | 11 | 107 | 0.0 | 1.6 | 0.00 | 0.00 | 0.00 | 83 | 1011.9 |
| 20260507035507 | 11 | 108 | 0.0 | 1.6 | 0.00 | 0.00 | 0.00 | 83 | 1011.9 |
| 20260507035007 | 11 | 108 | 0.0 | 1.6 | 0.00 | 0.00 | 0.00 | 84 | 1011.9 |
| 20260507034503 | 11 | 108 | 0.0 | 3.2 | 0.00 | 0.00 | 0.00 | 84 | 1011.8 |
| 20260507034004 | 11 | 108 | 0.0 | 3.2 | 0.00 | 0.00 | 0.00 | 84 | 1011.8 |
| 20260507033503 | 10 | 117 | 0.0 | 1.6 | 0.00 | 0.00 | 0.00 | 85 | 1011.8 |
| 20260507033009 | 10 | 117 | 0.0 | 1.6 | 0.00 | 0.00 | 0.00 | 84 | 1011.7 |
| 20260507032504 | 10 | 117 | 1.6 | 1.6 | 0.00 | 0.00 | 0.00 | 83 | 1011.9 |
| 20260507032006 | 11 | 90 | 0.0 | 1.6 | 0.00 | 0.00 | 0.00 | 82 | 1012.0 |
| 20260507031511 | 11 | 90 | 0.0 | 1.6 | 0.00 | 0.00 | 0.00 | 82 | 1012.0 |
| 20260507031011 | 11 | 90 | 0.0 | 1.6 | 0.00 | 0.00 | 0.00 | 82 | 1011.9 |
| 20260507030508 | 11 | 90 | 0.0 | 1.6 | 0.00 | 0.00 | 0.00 | 82 | 1011.9 |
| 20260507030018 | 11 | 90 | 0.0 | 1.6 | 0.00 | 0.00 | 0.00 | 82 | 1011.9 |
| 20260507025507 | 11 | 89 | 0.0 | 1.6 | 0.00 | 0.00 | 0.00 | 81 | 1011.7 |
| 20260507025007 | 11 | 89 | 0.0 | 1.6 | 0.00 | 0.00 | 0.00 | 81 | 1011.6 |
| 20260507024519 | 11 | 89 | 0.0 | 1.6 | 0.00 | 0.00 | 0.00 | 81 | 1011.6 |
| 20260507024008 | 11 | 89 | 0.0 | 3.2 | 0.00 | 0.00 | 0.00 | 81 | 1011.6 |
| 20260507023511 | 11 | 91 | 0.0 | 3.2 | 0.00 | 0.00 | 0.00 | 82 | 1011.6 |
| 20260507023003 | 10 | 135 | 0.0 | 1.6 | 0.00 | 0.00 | 0.00 | 83 | 1011.6 |
| 20260507022503 | 10 | 135 | 0.0 | 1.6 | 0.00 | 0.00 | 0.00 | 83 | 1011.7 |
| 20260507022006 | 10 | 135 | 0.0 | 1.6 | 0.00 | 0.00 | 0.00 | 81 | 1011.8 |
| 20260507021508 | 11 | 135 | 0.0 | 1.6 | 0.00 | 0.00 | 0.00 | 81 | 1011.9 |
| 20260507021010 | 11 | 135 | 0.0 | 1.6 | 0.00 | 0.00 | 0.00 | 80 | 1011.7 |
| 20260507020506 | 11 | 60 | 0.0 | 1.6 | 0.00 | 0.00 | 0.00 | 80 | 1011.7 |
| 20260507020011 | 11 | 60 | 0.0 | 1.6 | 0.00 | 0.00 | 0.00 | 80 | 1011.8 |
| 20260507015506 | 11 | 60 | 0.0 | 3.2 | 0.00 | 0.00 | 0.00 | 80 | 1011.7 |
| 20260507015010 | 11 | 60 | 0.0 | 3.2 | 0.00 | 0.00 | 0.00 | 79 | 1011.7 |
| 20260507014515 | 11 | 60 | 0.0 | 3.2 | 0.00 | 0.00 | 0.00 | 79 | 1011.7 |
| 20260507014009 | 11 | 80 | 0.0 | 3.2 | 0.00 | 0.00 | 0.00 | 79 | 1011.7 |
| 20260507013507 | 11 | 39 | 0.0 | 3.2 | 0.00 | 0.00 | 0.00 | 80 | 1011.7 |
| 20260507013022 | 11 | 65 | 0.0 | 1.6 | 0.00 | 0.00 | 0.00 | 80 | 1011.7 |
| 20260507012514 | 11 | 65 | 0.0 | 1.6 | 0.00 | 0.00 | 0.00 | 80 | 1011.7 |
| 20260507012010 | 11 | 65 | 0.0 | 1.6 | 0.00 | 0.00 | 0.00 | 79 | 1011.8 |
| 20260507011506 | 11 | 37 | 0.0 | 1.6 | 0.00 | 0.00 | 0.00 | 78 | 1011.8 |
| 20260507011004 | 11 | 37 | 0.0 | 4.8 | 0.00 | 0.00 | 0.00 | 78 | 1011.8 |
| 20260507010503 | 11 | 37 | 1.6 | 4.8 | 0.00 | 0.00 | 0.00 | 78 | 1011.9 |
| 20260507010008 | 11 | 19 | 0.0 | 4.8 | 0.00 | 0.00 | 0.00 | 77 | 1011.7 |
| 20260507005508 | 11 | 71 | 1.6 | 6.4 | 0.00 | 0.00 | 0.00 | 77 | 1011.8 |
| 20260507005009 | 11 | 20 | 1.6 | 6.4 | 0.00 | 0.00 | 0.00 | 77 | 1011.8 |
| 20260507004515 | 11 | 37 | 0.0 | 8.0 | 0.00 | 0.00 | 0.00 | 78 | 1011.7 |
| 20260507004007 | 11 | 207 | 1.6 | 8.0 | 0.00 | 0.00 | 0.00 | 77 | 1011.8 |
| 20260507003508 | 11 | 49 | 1.6 | 4.8 | 0.00 | 0.00 | 0.00 | 78 | 1011.8 |
| 20260507003019 | 11 | 18 | 1.6 | 4.8 | 0.00 | 0.00 | 0.00 | 78 | 1011.8 |
| 20260507002510 | 11 | 353 | 1.6 | 6.4 | 0.00 | 0.00 | 0.00 | 78 | 1011.8 |
| 20260507002009 | 11 | 22 | 1.6 | 6.4 | 0.00 | 0.00 | 0.00 | 78 | 1011.9 |
| 20260507001525 | 11 | 21 | 3.2 | 6.4 | 0.00 | 0.00 | 0.00 | 78 | 1012.0 |
| 20260507001012 | 11 | 31 | 1.6 | 6.4 | 0.00 | 0.00 | 0.00 | 80 | 1012.1 |
| 20260507000510 | 11 | 63 | 0.0 | 3.2 | 0.00 | 0.00 | 0.00 | 81 | 1012.2 |
| 20260507000006 | 11 | 63 | 0.0 | 3.2 | 0.00 | 0.00 | 0.00 | 81 | 1012.1 |
| 20260506235507 | 11 | 72 | 0.0 | 1.6 | 0.00 | 0.00 | 0.00 | 81 | 1012.0 |
| 20260506235008 | 11 | 48 | 0.0 | 1.6 | 0.00 | 0.00 | 0.00 | 81 | 1012.1 |
| 20260506234514 | 11 | 48 | 0.0 | 4.8 | 0.00 | 0.00 | 0.00 | 81 | 1012.1 |
| 20260506234006 | 11 | 48 | 0.0 | 4.8 | 0.00 | 0.00 | 0.00 | 81 | 1012.1 |
| 20260506233507 | 11 | 31 | 1.6 | 1.6 | 0.00 | 0.00 | 0.00 | 81 | 1012.3 |
| 20260506233016 | 11 | 30 | 1.6 | 1.6 | 0.00 | 0.00 | 0.00 | 82 | 1012.2 |
| 20260506232509 | 11 | 13 | 0.0 | 3.2 | 0.00 | 0.00 | 0.00 | 82 | 1012.2 |
| 20260506232007 | 11 | 12 | 1.6 | 4.8 | 0.00 | 0.00 | 0.00 | 82 | 1012.3 |
| 20260506231519 | 11 | 30 | 1.6 | 8.0 | 0.00 | 0.00 | 0.00 | 81 | 1012.3 |
| 20260506231008 | 11 | 22 | 1.6 | 9.7 | 0.00 | 0.00 | 0.00 | 81 | 1012.5 |
| 20260506230510 | 11 | 344 | 3.2 | 11.3 | 0.00 | 0.00 | 0.00 | 80 | 1012.6 |
| 20260506230024 | 12 | 349 | 3.2 | 14.5 | 0.00 | 0.00 | 0.00 | 80 | 1012.5 |
| 20260506225508 | 12 | 4 | 4.8 | 16.1 | 0.00 | 0.00 | 0.00 | 79 | 1012.7 |
| 20260506225011 | 12 | 310 | 6.4 | 16.1 | 0.00 | 0.00 | 0.00 | 78 | 1012.5 |
| 20260506224507 | 12 | 6 | 3.2 | 12.9 | 0.00 | 0.00 | 0.00 | 78 | 1012.6 |
| 20260506224006 | 12 | 336 | 3.2 | 6.4 | 0.00 | 0.00 | 0.00 | 78 | 1012.5 |
| 20260506223505 | 12 | 320 | 1.6 | 6.4 | 0.00 | 0.00 | 0.00 | 77 | 1012.5 |
| 20260506223014 | 12 | 316 | 1.6 | 6.4 | 0.00 | 0.00 | 0.00 | 76 | 1012.4 |
| 20260506222507 | 12 | 26 | 1.6 | 6.4 | 0.00 | 0.00 | 0.00 | 76 | 1012.3 |
| 20260506222012 | 12 | 12 | 1.6 | 6.4 | 0.00 | 0.00 | 0.00 | 75 | 1012.2 |
| 20260506221520 | 12 | 345 | 1.6 | 4.8 | 0.00 | 0.00 | 0.00 | 75 | 1012.3 |
| 20260506221011 | 12 | 8 | 1.6 | 4.8 | 0.00 | 0.00 | 0.00 | 75 | 1012.1 |
| 20260506220508 | 12 | 29 | 1.6 | 6.4 | 0.00 | 0.00 | 0.00 | 75 | 1011.9 |
| 20260506220030 | 12 | 49 | 1.6 | 6.4 | 0.00 | 0.00 | 0.00 | 76 | 1011.9 |
| 20260506215509 | 12 | 25 | 1.6 | 8.0 | 0.00 | 0.00 | 0.00 | 77 | 1011.8 |
| 20260506215009 | 12 | 40 | 1.6 | 8.0 | 0.00 | 0.00 | 0.00 | 78 | 1011.8 |
| 20260506214527 | 12 | 23 | 1.6 | 3.2 | 0.00 | 0.00 | 0.00 | 79 | 1011.8 |
| 20260506214009 | 12 | 103 | 0.0 | 1.6 | 0.00 | 0.00 | 0.00 | 80 | 1011.6 |
| 20260506213506 | 12 | 48 | 0.0 | 1.6 | 0.00 | 0.00 | 0.00 | 80 | 1011.7 |
| 20260506213015 | 12 | 48 | 0.0 | 1.6 | 0.00 | 0.00 | 0.00 | 80 | 1011.8 |
| 20260506212506 | 12 | 48 | 0.0 | 1.6 | 0.00 | 0.00 | 0.00 | 80 | 1011.7 |
| 20260506212006 | 12 | 48 | 0.0 | 1.6 | 0.00 | 0.00 | 0.00 | 80 | 1011.7 |
| 20260506211514 | 12 | 48 | 0.0 | 3.2 | 0.00 | 0.00 | 0.00 | 80 | 1011.7 |
| 20260506211007 | 12 | 48 | 0.0 | 4.8 | 0.00 | 0.00 | 0.00 | 79 | 1011.8 |
| 20260506210511 | 13 | 15 | 0.0 | 6.4 | 0.00 | 0.00 | 0.00 | 79 | 1011.7 |
| 20260506210020 | 13 | 12 | 1.6 | 16.1 | 0.00 | 0.00 | 0.00 | 78 | 1011.7 |
| 20260506205510 | 13 | 5 | 1.6 | 16.1 | 0.00 | 0.00 | 0.00 | 80 | 1011.9 |
| 20260506205008 | 13 | 276 | 4.8 | 16.1 | 0.00 | 0.00 | 0.00 | 80 | 1011.9 |
| 20260506204525 | 13 | 319 | 1.6 | 8.0 | 0.00 | 0.00 | 0.00 | 80 | 1011.8 |
| 20260506204010 | 13 | 22 | 3.2 | 8.0 | 0.00 | 0.00 | 0.00 | 80 | 1011.7 |
| 20260506203514 | 13 | 124 | 0.0 | 1.6 | 0.00 | 0.00 | 0.00 | 80 | 1011.7 |
| 20260506203026 | 13 | 15 | 0.0 | 4.8 | 0.00 | 0.00 | 0.00 | 80 | 1011.7 |
| 20260506202514 | 13 | 17 | 1.6 | 4.8 | 0.00 | 0.00 | 0.00 | 80 | 1011.5 |
| 20260506202006 | 13 | 30 | 0.0 | 1.6 | 0.00 | 0.00 | 0.00 | 80 | 1011.4 |
| 20260506201514 | 12 | 30 | 0.0 | 1.6 | 0.00 | 0.00 | 0.00 | 81 | 1011.4 |
| 20260506201008 | 12 | 30 | 0.0 | 1.6 | 0.00 | 0.00 | 0.00 | 81 | 1011.4 |
| 20260506200506 | 12 | 29 | 0.0 | 3.2 | 0.00 | 0.00 | 0.00 | 80 | 1011.4 |
| 20260506200024 | 13 | 316 | 0.0 | 3.2 | 0.00 | 0.00 | 0.00 | 80 | 1011.3 |
| 20260506195507 | 12 | 11 | 0.0 | 1.6 | 0.00 | 0.00 | 0.00 | 80 | 1011.2 |
| 20260506195013 | 13 | 352 | 0.0 | 3.2 | 0.00 | 0.00 | 0.00 | 80 | 1011.2 |
| 20260506194520 | 13 | 43 | 0.0 | 3.2 | 0.00 | 0.00 | 0.00 | 80 | 1011.2 |
| 20260506194012 | 13 | 27 | 1.6 | 4.8 | 0.00 | 0.00 | 0.00 | 80 | 1011.2 |
| 20260506193511 | 13 | 30 | 0.0 | 4.8 | 0.00 | 0.00 | 0.00 | 80 | 1011.1 |
| 20260506193026 | 13 | 4 | 0.0 | 4.8 | 0.00 | 0.00 | 0.00 | 79 | 1011.1 |
| 20260506192510 | 13 | 197 | 0.0 | 4.8 | 0.00 | 0.00 | 0.00 | 79 | 1011.1 |
| 20260506192009 | 13 | 174 | 1.6 | 4.8 | 0.00 | 0.00 | 0.00 | 79 | 1011.1 |
| 20260506191524 | 13 | 254 | 1.6 | 4.8 | 0.00 | 0.00 | 0.00 | 79 | 1011.0 |
| 20260506191010 | 13 | 251 | 1.6 | 4.8 | 0.00 | 0.00 | 0.00 | 79 | 1011.1 |
| 20260506190507 | 13 | 309 | 1.6 | 3.2 | 0.00 | 0.00 | 0.00 | 79 | 1011.0 |
| 20260506190014 | 13 | 11 | 1.6 | 6.4 | 0.00 | 0.00 | 0.00 | 78 | 1011.0 |
| 20260506185504 | 13 | 20 | 0.0 | 6.4 | 0.00 | 0.00 | 0.00 | 78 | 1011.0 |
| 20260506185007 | 13 | 176 | 0.0 | 6.4 | 0.00 | 0.00 | 0.00 | 78 | 1010.9 |
| 20260506184518 | 13 | 260 | 0.0 | 6.4 | 0.00 | 0.00 | 0.00 | 77 | 1010.9 |
| 20260506184006 | 13 | 20 | 1.6 | 8.0 | 0.00 | 0.00 | 0.00 | 77 | 1010.8 |
| 20260506183507 | 13 | 302 | 3.2 | 8.0 | 0.00 | 0.00 | 0.00 | 76 | 1010.8 |
| 20260506183024 | 13 | 309 | 1.6 | 6.4 | 0.00 | 0.00 | 0.00 | 76 | 1010.7 |
| 20260506182508 | 14 | 313 | 3.2 | 8.0 | 0.00 | 0.00 | 0.00 | 76 | 1010.8 |
| 20260506182006 | 14 | 318 | 3.2 | 8.0 | 0.00 | 0.00 | 0.00 | 75 | 1010.8 |
| 20260506181507 | 14 | 59 | 3.2 | 8.0 | 0.00 | 0.00 | 0.00 | 75 | 1010.6 |
| 20260506181005 | 14 | 327 | 4.8 | 8.0 | 0.00 | 0.00 | 0.00 | 74 | 1010.6 |
| 20260506180504 | 15 | 326 | 3.2 | 8.0 | 0.00 | 0.00 | 0.00 | 73 | 1010.6 |
| 20260506180010 | 15 | 168 | 1.6 | 6.4 | 0.00 | 0.00 | 0.00 | 73 | 1010.5 |
| 20260506175505 | 15 | 323 | 3.2 | 6.4 | 0.00 | 0.00 | 0.00 | 72 | 1010.4 |
| 20260506175006 | 15 | 309 | 1.6 | 6.4 | 0.00 | 0.00 | 0.00 | 72 | 1010.5 |
| 20260506174516 | 15 | 232 | 1.6 | 9.7 | 0.00 | 0.00 | 0.00 | 71 | 1010.6 |
| 20260506174007 | 16 | 25 | 3.2 | 9.7 | 0.00 | 0.00 | 0.00 | 71 | 1010.5 |
| 20260506173507 | 16 | 314 | 1.6 | 6.4 | 0.00 | 0.00 | 0.00 | 70 | 1010.3 |
| 20260506173019 | 16 | 26 | 3.2 | 8.0 | 0.00 | 0.00 | 0.00 | 68 | 1010.3 |
| 20260506172506 | 16 | 24 | 3.2 | 9.7 | 0.00 | 0.00 | 0.00 | 67 | 1010.3 |
| 20260506172008 | 16 | 304 | 1.6 | 9.7 | 0.00 | 0.00 | 0.00 | 67 | 1010.4 |
| 20260506171522 | 16 | 248 | 3.2 | 6.4 | 0.00 | 0.00 | 0.00 | 66 | 1010.3 |
| 20260506171004 | 16 | 270 | 1.6 | 6.4 | 0.00 | 0.00 | 0.00 | 69 | 1010.3 |
| 20260506170507 | 16 | 360 | 1.6 | 4.8 | 0.00 | 0.00 | 0.00 | 69 | 1010.3 |
| 20260506170007 | 16 | 27 | 1.6 | 6.4 | 0.00 | 0.00 | 0.00 | 70 | 1010.2 |
| 20260506165505 | 16 | 26 | 0.0 | 6.4 | 0.00 | 0.00 | 0.00 | 71 | 1010.3 |
| 20260506165008 | 16 | 236 | 0.0 | 3.2 | 0.00 | 0.00 | 0.00 | 71 | 1010.3 |
| 20260506164510 | 16 | 187 | 0.0 | 3.2 | 0.00 | 0.00 | 0.00 | 71 | 1010.3 |
| 20260506164009 | 16 | 184 | 0.0 | 4.8 | 0.00 | 0.00 | 0.00 | 71 | 1010.3 |
| 20260506163511 | 16 | 50 | 1.6 | 4.8 | 0.00 | 0.00 | 0.00 | 70 | 1010.3 |
| 20260506163031 | 16 | 13 | 1.6 | 3.2 | 0.00 | 0.00 | 0.00 | 71 | 1010.5 |
| 20260506162507 | 16 | 6 | 0.0 | 1.6 | 0.00 | 0.00 | 0.00 | 70 | 1010.6 |
| 20260506162008 | 16 | 6 | 0.0 | 0.0 | 0.00 | 0.00 | 0.00 | 71 | 1010.6 |
| 20260506161520 | 16 | 6 | 0.0 | 1.6 | 0.00 | 0.00 | 0.00 | 71 | 1010.6 |
| 20260506161007 | 16 | 6 | 0.0 | 3.2 | 0.00 | 0.00 | 0.00 | 71 | 1010.6 |
| 20260506160512 | 16 | 6 | 0.0 | 3.2 | 0.00 | 0.00 | 0.00 | 70 | 1010.5 |
| 20260506160024 | 16 | 16 | 0.0 | 4.8 | 0.00 | 0.00 | 0.00 | 70 | 1010.6 |
| 20260506155505 | 16 | 14 | 3.2 | 4.8 | 0.00 | 0.00 | 0.00 | 70 | 1010.6 |
| 20260506155008 | 16 | 350 | 1.6 | 6.4 | 0.00 | 0.00 | 0.00 | 71 | 1010.6 |
| 20260506154509 | 16 | 5 | 1.6 | 6.4 | 0.00 | 0.00 | 0.00 | 71 | 1010.6 |
| 20260506154010 | 16 | 21 | 1.6 | 6.4 | 0.00 | 0.00 | 0.00 | 70 | 1010.7 |
| 20260506153507 | 16 | 2 | 1.6 | 8.0 | 0.00 | 0.00 | 0.00 | 71 | 1010.9 |
| 20260506153014 | 16 | 208 | 3.2 | 8.0 | 0.00 | 0.00 | 0.00 | 71 | 1010.9 |
| 20260506152506 | 16 | 356 | 3.2 | 11.3 | 0.00 | 0.00 | 0.00 | 71 | 1011.0 |
| 20260506152006 | 16 | 208 | 3.2 | 11.3 | 0.00 | 0.00 | 0.00 | 71 | 1011.0 |
| 20260506151518 | 16 | 302 | 1.6 | 9.7 | 0.00 | 0.00 | 0.00 | 71 | 1011.0 |
| 20260506151009 | 16 | 240 | 1.6 | 9.7 | 0.00 | 0.00 | 0.00 | 72 | 1011.0 |
| 20260506150509 | 16 | 262 | 3.2 | 8.0 | 0.00 | 0.00 | 0.00 | 73 | 1010.9 |
| 20260506150022 | 15 | 23 | 1.6 | 6.4 | 0.00 | 0.00 | 0.00 | 73 | 1010.9 |
| 20260506145511 | 15 | 319 | 1.6 | 6.4 | 0.00 | 0.00 | 0.00 | 73 | 1010.9 |
| 20260506145009 | 15 | 31 | 1.6 | 6.4 | 0.00 | 0.00 | 0.00 | 74 | 1010.9 |
| 20260506144524 | 15 | 20 | 3.2 | 6.4 | 0.00 | 0.00 | 0.00 | 73 | 1010.9 |
| 20260506144003 | 15 | 48 | 1.6 | 4.8 | 0.00 | 0.00 | 0.00 | 73 | 1011.0 |
| 20260506143504 | 15 | 6 | 1.6 | 4.8 | 0.00 | 0.00 | 0.00 | 73 | 1011.0 |
| 20260506143016 | 15 | 231 | 0.0 | 6.4 | 0.00 | 0.00 | 0.00 | 74 | 1011.0 |
| 20260506142506 | 15 | 208 | 3.2 | 6.4 | 0.00 | 0.00 | 0.00 | 72 | 1011.1 |
| 20260506142007 | 15 | 23 | 0.0 | 3.2 | 0.00 | 0.00 | 0.00 | 73 | 1011.0 |
| 20260506141515 | 16 | 186 | 1.6 | 9.7 | 0.00 | 0.00 | 0.00 | 72 | 1011.1 |
| 20260506141011 | 16 | 13 | 3.2 | 9.7 | 0.00 | 0.00 | 0.00 | 71 | 1011.2 |
| 20260506140511 | 15 | 333 | 1.6 | 11.3 | 0.00 | 0.00 | 0.00 | 73 | 1011.3 |
| 20260506140023 | 15 | 226 | 3.2 | 11.3 | 0.00 | 0.00 | 0.00 | 71 | 1011.2 |
| 20260506135510 | 15 | 304 | 3.2 | 9.7 | 0.00 | 0.00 | 0.00 | 72 | 1011.2 |
| 20260506135010 | 15 | 239 | 3.2 | 12.9 | 0.00 | 0.00 | 0.00 | 72 | 1011.4 |
| 20260506134525 | 15 | 23 | 3.2 | 12.9 | 0.00 | 0.00 | 0.00 | 71 | 1011.4 |
| 20260506134009 | 15 | 249 | 3.2 | 9.7 | 0.00 | 0.00 | 0.00 | 71 | 1011.4 |
| 20260506133508 | 15 | 27 | 4.8 | 17.7 | 0.00 | 0.00 | 0.00 | 71 | 1011.4 |
| 20260506133008 | 15 | 327 | 4.8 | 17.7 | 0.00 | 0.00 | 0.00 | 70 | 1011.4 |
| 20260506132504 | 15 | 358 | 4.8 | 17.7 | 0.00 | 0.00 | 0.00 | 70 | 1011.5 |
| 20260506132007 | 16 | 14 | 4.8 | 14.5 | 0.00 | 0.00 | 0.00 | 70 | 1011.5 |
| 20260506131518 | 16 | 238 | 3.2 | 12.9 | 0.00 | 0.00 | 0.00 | 71 | 1011.5 |
| 20260506131008 | 16 | 309 | 4.8 | 11.3 | 0.00 | 0.00 | 0.00 | 70 | 1011.6 |
| 20260506130508 | 16 | 319 | 4.8 | 9.7 | 0.00 | 0.00 | 0.00 | 70 | 1011.5 |
| 20260506130018 | 16 | 238 | 3.2 | 9.7 | 0.00 | 0.00 | 0.00 | 71 | 1011.5 |
| 20260506125509 | 15 | 85 | 3.2 | 11.3 | 0.00 | 0.00 | 0.00 | 71 | 1011.5 |
| 20260506125010 | 15 | 281 | 6.4 | 12.9 | 0.00 | 0.00 | 0.00 | 71 | 1011.6 |
| 20260506124520 | 15 | 321 | 4.8 | 12.9 | 0.00 | 0.00 | 0.00 | 71 | 1011.6 |
| 20260506124008 | 15 | 307 | 4.8 | 11.3 | 0.00 | 0.00 | 0.00 | 72 | 1011.6 |
| 20260506123510 | 15 | 326 | 3.2 | 9.7 | 0.00 | 0.00 | 0.00 | 73 | 1011.6 |
| 20260506123025 | 15 | 200 | 4.8 | 8.0 | 0.00 | 0.00 | 0.00 | 73 | 1011.8 |
| 20260506122510 | 15 | 220 | 3.2 | 8.0 | 0.00 | 0.00 | 0.00 | 75 | 1011.7 |
| 20260506122010 | 15 | 326 | 1.6 | 6.4 | 0.00 | 0.00 | 0.00 | 74 | 1011.9 |
| 20260506121509 | 15 | 321 | 1.6 | 9.7 | 0.00 | 0.00 | 0.00 | 74 | 1011.9 |
| 20260506121003 | 15 | 344 | 1.6 | 9.7 | 0.00 | 0.00 | 0.00 | 74 | 1012.0 |
| 20260506120503 | 15 | 199 | 3.2 | 6.4 | 0.00 | 0.00 | 0.00 | 74 | 1012.0 |
| 20260506120017 | 15 | 197 | 3.2 | 6.4 | 0.00 | 0.00 | 0.00 | 74 | 1012.0 |
| 20260506115509 | 15 | 319 | 1.6 | 6.4 | 0.00 | 0.00 | 0.00 | 75 | 1011.9 |
| 20260506115007 | 15 | 286 | 1.6 | 4.8 | 0.00 | 0.00 | 0.00 | 74 | 1012.0 |
| 20260506114521 | 15 | 321 | 1.6 | 4.8 | 0.00 | 0.00 | 0.00 | 73 | 1011.9 |
| 20260506114008 | 15 | 312 | 1.6 | 3.2 | 0.00 | 0.00 | 0.00 | 76 | 1012.1 |
| 20260506113511 | 15 | 160 | 0.0 | 6.4 | 0.00 | 0.00 | 0.00 | 76 | 1012.1 |
| 20260506113023 | 15 | 195 | 1.6 | 6.4 | 0.00 | 0.00 | 0.00 | 74 | 1012.2 |
| 20260506112512 | 15 | 328 | 1.6 | 9.7 | 0.00 | 0.00 | 0.00 | 74 | 1012.2 |
| 20260506112009 | 15 | 333 | 3.2 | 9.7 | 0.00 | 0.00 | 0.00 | 73 | 1012.3 |
| 20260506111529 | 15 | 356 | 1.6 | 9.7 | 0.00 | 0.00 | 0.00 | 73 | 1012.3 |
| 20260506111007 | 15 | 307 | 3.2 | 6.4 | 0.00 | 0.00 | 0.00 | 72 | 1012.2 |
| 20260506110507 | 15 | 357 | 3.2 | 6.4 | 0.00 | 0.00 | 0.00 | 72 | 1012.3 |
| 20260506110013 | 15 | 173 | 1.6 | 6.4 | 0.00 | 0.00 | 0.00 | 72 | 1012.4 |
| 20260506105509 | 15 | 197 | 3.2 | 6.4 | 0.00 | 0.00 | 0.00 | 71 | 1012.4 |
| 20260506105005 | 15 | 316 | 1.6 | 6.4 | 0.00 | 0.00 | 0.00 | 72 | 1012.4 |
| 20260506104518 | 15 | 181 | 3.2 | 6.4 | 0.00 | 0.00 | 0.00 | 72 | 1012.4 |
| 20260506104008 | 15 | 207 | 3.2 | 6.4 | 0.00 | 0.00 | 0.00 | 72 | 1012.5 |
| 20260506103508 | 15 | 292 | 1.6 | 9.7 | 0.00 | 0.00 | 0.00 | 73 | 1012.7 |
| 20260506103023 | 15 | 205 | 3.2 | 9.7 | 0.00 | 0.00 | 0.00 | 71 | 1012.6 |
| 20260506102510 | 15 | 189 | 1.6 | 8.0 | 0.00 | 0.00 | 0.00 | 73 | 1012.7 |
| 20260506102009 | 15 | 172 | 3.2 | 6.4 | 0.00 | 0.00 | 0.00 | 73 | 1012.7 |
| 20260506101526 | 15 | 160 | 3.2 | 6.4 | 0.00 | 0.00 | 0.00 | 73 | 1012.8 |
| 20260506101015 | 15 | 193 | 3.2 | 6.4 | 0.00 | 0.00 | 0.00 | 73 | 1012.7 |
| 20260506100509 | 15 | 211 | 1.6 | 6.4 | 0.00 | 0.00 | 0.00 | 73 | 1012.8 |
| 20260506100027 | 14 | 318 | 1.6 | 6.4 | 0.00 | 0.00 | 0.00 | 73 | 1012.9 |
| 20260506095511 | 14 | 194 | 1.6 | 6.4 | 0.00 | 0.00 | 0.00 | 74 | 1012.9 |
| 20260506095005 | 14 | 1 | 1.6 | 6.4 | 0.00 | 0.00 | 0.00 | 75 | 1012.9 |
| 20260506094515 | 14 | 186 | 1.6 | 3.2 | 0.00 | 0.00 | 0.00 | 77 | 1012.9 |
| 20260506094009 | 14 | 176 | 1.6 | 3.2 | 0.00 | 0.00 | 0.00 | 78 | 1012.9 |
| 20260506093510 | 14 | 23 | 1.6 | 11.3 | 0.00 | 0.00 | 0.00 | 77 | 1012.9 |
| 20260506093034 | 14 | 25 | 4.8 | 11.3 | 0.00 | 0.00 | 0.00 | 76 | 1012.8 |
| 20260506092507 | 13 | 214 | 1.6 | 6.4 | 0.00 | 0.00 | 0.00 | 77 | 1012.7 |
| 20260506092009 | 13 | 202 | 3.2 | 8.0 | 0.00 | 0.00 | 0.00 | 77 | 1012.8 |
| 20260506091524 | 13 | 11 | 3.2 | 8.0 | 0.00 | 0.00 | 0.00 | 78 | 1012.9 |
| 20260506091009 | 13 | 210 | 3.2 | 8.0 | 0.00 | 0.00 | 0.00 | 79 | 1012.9 |
| 20260506090510 | 13 | 295 | 3.2 | 8.0 | 0.00 | 0.00 | 0.00 | 78 | 1013.0 |
| 20260506090025 | 13 | 3 | 3.2 | 8.0 | 0.00 | 0.00 | 0.00 | 78 | 1013.0 |
| 20260506085508 | 14 | 266 | 3.2 | 11.3 | 0.00 | 0.00 | 0.00 | 77 | 1013.0 |
| 20260506085009 | 14 | 349 | 3.2 | 11.3 | 0.00 | 0.00 | 0.00 | 76 | 1013.0 |
| 20260506084527 | 15 | 198 | 3.2 | 8.0 | 0.00 | 0.00 | 0.00 | 75 | 1012.9 |
| 20260506084012 | 15 | 288 | 3.2 | 9.7 | 0.00 | 0.00 | 0.00 | 74 | 1012.7 |
| 20260506083509 | 15 | 323 | 3.2 | 9.7 | 0.00 | 0.00 | 0.00 | 74 | 1012.6 |
| 20260506083017 | 15 | 303 | 3.2 | 6.4 | 0.00 | 0.00 | 0.00 | 74 | 1012.5 |
| 20260506082511 | 15 | 305 | 1.6 | 6.4 | 0.00 | 0.00 | 0.00 | 75 | 1012.5 |
| 20260506082012 | 15 | 335 | 1.6 | 4.8 | 0.00 | 0.00 | 0.00 | 76 | 1012.3 |
| 20260506081522 | 15 | 315 | 1.6 | 4.8 | 0.00 | 0.00 | 0.00 | 75 | 1012.3 |
| 20260506081013 | 15 | 81 | 1.6 | 3.2 | 0.00 | 0.00 | 0.00 | 76 | 1012.2 |
| 20260506080509 | 15 | 8 | 1.6 | 3.2 | 0.00 | 0.00 | 0.00 | 77 | 1012.2 |
| 20260506073512 | 15 | 313 | 0.0 | 4.8 | 0.00 | 0.00 | 0.00 | 74 | 1012.2 |
| 20260506073027 | 15 | 345 | 1.6 | 4.8 | 0.00 | 0.00 | 0.00 | 73 | 1012.3 |
| 20260506072507 | 16 | 305 | 1.6 | 4.8 | 0.00 | 0.00 | 0.00 | 75 | 1012.3 |
| 20260506072015 | 15 | 18 | 1.6 | 4.8 | 0.00 | 0.00 | 0.00 | 76 | 1012.3 |
| 20260506071518 | 15 | 252 | 1.6 | 6.4 | 0.00 | 0.00 | 0.00 | 77 | 1012.3 |
| 20260506071006 | 14 | 357 | 1.6 | 6.4 | 0.00 | 0.00 | 0.00 | 79 | 1012.5 |